THORAD AGENA D DEB

Satellite information

Favourite Embed

Satellite Type and Status

DEBRISIN ORBIT

Key statistics

Satellite THORAD AGENA D DEB at a glance.

Uptime

20475

Days in orbit

Revolutions

≈ 14.5

Per day

Orbit

LEO

Low Earth Orbit

Inclination

69.8

Latest

Satellite identification and parameters

Extended collection of information and parameters for THORAD AGENA D DEB.

Object identification

Identified? True

Debris? True

Object name: THORAD AGENA D DEB

International designator: 1969-082AW

Object number (NORAD): 4178

Object ID (CCSDS): 4178

Country: UNITED STATES OF AMERICA (US)

Current information (Y/N): Y

RCS size: SMALL

Orbital parameters

Period: 99.551 minutes

Inclination: 69.8474 deg

SMA: 7115.266 km

Apoapsis: 784.606 km

Periapsis: 689.655 km

RAAN: 226.2119 deg

Eccentricy: 0.00667232

Argument of periapsis: 261.1844 deg

Mean anomaly: 98.1727 deg

Mean motion: 14.46492119 rev/day

Mean motion (dot): 0.00004989 rev/day2

B* drag term: 0.0013635961 1/REarth

Two-line elements (TLE)

Creation date: Oct. 21, 2025, 3:26 a.m.

Reference frame: TEME

Reference center: EARTH

Epoch: Oct. 20, 2025, 9:59 p.m. UTC

TLE line 0: 0 THORAD AGENA D DEB

TLE line 1: 1 04178U 69082AW 25293.91650803 .00004989 00000-0 13636-2 0 9999

TLE line 2: 2 04178 69.8474 226.2119 0066723 261.1844 98.1727 14.46492119904607

Live tracking on map

Real-time ground track for satellite THORAD AGENA D DEB.

In-orbit conjunctions

A list of the most updated potential collisions computed for object THORAD AGENA D DEB.

Target Orbit TCA Probability of collision Miss distance Type
CZ-6 R/B LEO 2025-06-04 04:43:09 0.0001118186 856.0 (m) ROCKET BODY
COSMOS 990 LEO 2025-03-17 00:04:13 0.0004939337 349.0 (m) PAYLOAD
CZ-6A DEB LEO 2025-01-30 18:09:37 0.0003307141 734.0 (m) DEBRIS
COSMOS 540 LEO 2025-01-18 06:44:27 0.0001147476 379.0 (m) PAYLOAD
NOAA 16 DEB SSO 2024-08-10 23:02:30 0.0001507581 68.0 (m) DEBRIS

Associated space launch

Poppy was the follow-on ELINT system, which succeeded the Grab ELINT satellite system.

THORAD AGENA D DEB was lifted into orbit during the mission ‘Thorad SLV-2G Agena D | Poppy 8A,B,C,D’, on board a Thorad SLV-2G Agena D space rocket.

The launch took place on Sept. 30, 1969, 1:40 p.m. from Space Launch Complex 1W.

For more information about the launch, click the button.

Launch to space Thorad SLV-2G Agena D | Poppy 8A,B,C,D
Thorad SLV-2G Agena D | Poppy 8A,B,C,D

Agency: N/A

Status: Launch Successful

Launch date: Sept. 30, 1969, 1:40 p.m. UTC

Rocket: Thorad SLV-2G Agena D

Launch pad: Space Launch Complex 1W

Location: Vandenberg SFB, CA, USA

...

Latest news about this satellite

There are no fresh news available about this satellite. Check back as we update our databases every day.


Newsletter sign-up

Weekly statistics, charts and insights to help you stay on top of the space industry.